Weather History for KABI - October, 2013

Change the Weather History Date:

Friday, October 25, 2013

  Actual Average Record
Temperature  
Mean Temperature 61 °F 63 °F  
Max Temperature 74 °F 75 °F 91 °F (1950)
Min Temperature 48 °F 52 °F 34 °F (1887)
Degree Days  
Heating Degree Days 4 4  
Month to date heating degree days 75 61  
Since 1 July heating degree days 75 72  
Cooling Degree Days 0 2  
Month to date cooling degree days 113 105  
Year to date cooling degree days 2682 2376  
Growing Degree Days 10 (Base 50)    
Moisture  
Dew Point 47 °F    
Average Humidity 59    
Maximum Humidity 80    
Minimum Humidity 38    
Precipitation  
Precipitation 0.00 in 0.10 in 2.71 in (1958)
Month to date precipitation 1.40 2.48  
Year to date precipitation 20.91 21.68  
Sea Level Pressure  
Sea Level Pressure 30.24 in    
Wind  
Wind Speed 7 mph (SE)    
Max Wind Speed 16 mph    
Max Gust Speed 21 mph    
Visibility 10 miles    
Events      
T = Trace of Precipitation, MM = Missing Value Source: NWS Daily Summary

Daily Weather History Graph

Daily Weather History Graph

Search for Another Location

Airport or City:

Trip Planner

Search our weather history database for the weather conditions in past years. The results will help you decide how hot, cold, wet, or windy it might be!

Date:

Astronomy

Oct. 25, 2013 Rise Set
Actual Time 7:50 AM CDT 6:54 PM CDT
Civil Twilight 7:25 AM CDT 7:19 PM CDT
Nautical Twilight 6:56 AM CDT 7:48 PM CDT
Astronomical Twilight 6:27 AM CDT 8:17 PM CDT
Moon No Moon Rise 1:26 PM CDT (10/25)
Length of Visible Light 11h 54m
Length of Day
11h 04m
Waning Gibbous, 62% of the Moon is Illuminated
Oct 25
Waning Gibbous
Oct 26
Last Quarter
Nov 3
New
Nov 9
First Quarter
Nov 17
Full

Hourly Weather History & Observations

Time (CDT) Temp. Dew Point Humidity Pressure Visibility Wind Dir Wind Speed Gust Speed Precip Events Conditions
12:52 AM 57.9 °F 48.0 °F 70% 30.21 in 10.0 mi East 11.5 mph - N/A   Clear
1:52 AM 55.9 °F 46.9 °F 72% 30.22 in 10.0 mi East 6.9 mph - N/A   Clear
2:52 AM 53.1 °F 46.0 °F 77% 30.24 in 10.0 mi Variable 3.5 mph - N/A   Clear
3:52 AM 52.0 °F 44.1 °F 74% 30.24 in 10.0 mi East 4.6 mph - N/A   Clear
4:52 AM 51.1 °F 43.0 °F 74% 30.26 in 10.0 mi East 4.6 mph - N/A   Clear
5:52 AM 50.0 °F 43.0 °F 77% 30.28 in 10.0 mi Calm Calm - N/A   Clear
6:52 AM 48.9 °F 42.1 °F 77% 30.29 in 10.0 mi ESE 6.9 mph - N/A   Clear
7:52 AM 48.0 °F 41.0 °F 77% 30.31 in 10.0 mi Calm Calm - N/A   Clear
8:52 AM 51.1 °F 43.0 °F 74% 30.32 in 10.0 mi SE 4.6 mph - N/A   Clear
9:52 AM 55.0 °F 44.1 °F 67% 30.34 in 10.0 mi ESE 9.2 mph - N/A   Clear
10:52 AM 60.1 °F 46.0 °F 60% 30.34 in 10.0 mi Calm Calm - N/A   Clear
11:52 AM 64.0 °F 48.0 °F 56% 30.31 in 10.0 mi Variable 3.5 mph - N/A   Clear
12:52 PM 68.0 °F 51.1 °F 55% 30.28 in 10.0 mi SSE 6.9 mph - N/A   Clear
1:52 PM 72.0 °F 51.1 °F 48% 30.25 in 10.0 mi SSE 11.5 mph - N/A   Clear
2:52 PM 72.0 °F 48.9 °F 44% 30.22 in 10.0 mi South 9.2 mph - N/A   Clear
3:52 PM 73.9 °F 46.9 °F 38% 30.20 in 10.0 mi SSE 9.2 mph - N/A   Clear
4:52 PM 72.0 °F 48.9 °F 44% 30.19 in 10.0 mi SE 10.4 mph - N/A   Mostly Cloudy
5:52 PM 72.0 °F 48.0 °F 43% 30.18 in 10.0 mi SSE 9.2 mph - N/A   Partly Cloudy
6:52 PM 68.0 °F 48.9 °F 50% 30.17 in 10.0 mi SE 9.2 mph - N/A   Clear
7:52 PM 64.0 °F 50.0 °F 60% 30.18 in 10.0 mi ESE 9.2 mph - N/A   Clear
8:52 PM 64.0 °F 51.1 °F 63% 30.17 in 10.0 mi SE 11.5 mph - N/A   Clear
9:52 PM 64.0 °F 53.1 °F 67% 30.19 in 10.0 mi SSE 6.9 mph - N/A   Clear
10:52 PM 61.0 °F 53.1 °F 75% 30.20 in 10.0 mi SE 6.9 mph - N/A   Clear
11:52 PM 59.0 °F 53.1 °F 81% 30.18 in 10.0 mi SE 9.2 mph - N/A   Clear